National Weather Service United States Department of Commerce

Latest Hourly Weather Roundup

TOPSWRTT 000
TTAA00 KICT 191612

Wichita AWIPS Roundup
National Weather Service Wichita KS
1100 AM CDT THU OCT 19 2017

....Central Kansas....
  
CITY           SKY/WX    TMP DP  RH WIND       PRES   REMARKS
RUSSELL        SUNNY     64  50  60 S9        30.06S                  
SALINA         SUNNY     68  53  58 S6        30.09S                  
GREAT BEND     SUNNY     67  51  56 S10       30.08S                  
ELLSWORTH      SUNNY     66  48  52 S6        30.07S                  
MCPHERSON      SUNNY     68  52  56 S12       30.10S                  
HAYS           SUNNY     65  47  52 S7        30.07F                  

....South Central Kansas....
  
CITY           SKY/WX    TMP DP  RH WIND       PRES   REMARKS
HUTCHINSON     SUNNY     66  50  56 S13       30.10R                  
NEWTON         SUNNY     67  48  50 S17       30.11S                  
KINGMAN        SUNNY     68  50  52 S12       30.10S                  
WICHITA (ICT)  MOSUNNY   66  50  56 S15       30.11S                  
JABARA ARPT    SUNNY     67  49  52 SW14G22   30.11S                  
BEECH ARPT     FAIR      67  47  50 S13       30.11S                  
MCCONNELL AFB  SUNNY     67  49  52 SW13      30.11S                  
BENTON         FAIR      66  48  51 S13G20    30.12S                  
EL DORADO      FAIR      70  46  43 S15       30.12S                  
AUGUSTA        FAIR      64  48  55 S15       30.12S                  
HARPER           N/A     64  48  55 CALM      30.14S                  
WELLINGTON     SUNNY     66  50  55 S10       30.12S                  
WINFIELD       SUNNY     67  50  54 S13       30.14F                  
 
....Southeast Kansas....
  
CITY           SKY/WX    TMP DP  RH WIND       PRES   REMARKS
EUREKA         SUNNY     70  52  52 S10       30.13S                  
IOLA           FAIR      67  49  51 S13       30.16S                  
CHANUTE        SUNNY     69  50  50 S15       30.15S                  
PARSONS        SUNNY     69  51  52 S12       30.17S                  
COFFEYVILLE    SUNNY     69  54  58 S10       30.16R                  
INDEPENDENCE   SUNNY     69  51  52 S16       30.15F                  
FORT SCOTT     SUNNY     72  50  46 SW13G18   30.15S                  
PITTSBURG      SUNNY     71  55  56 SW15      30.17S                  

....Western Kansas....
  
CITY           SKY/WX    TMP DP  RH WIND       PRES   REMARKS
GOODLAND       SUNNY     67  44  43 S10       30.06F                  
HILL CITY      SUNNY     61  44  53 CALM      30.07S                  
LIBERAL        MOSUNNY   61  48  62 SE7       30.09F                  
GARDEN CITY    CLOUDY    65  46  50 S7        30.08S                  
DODGE CITY     CLOUDY    68  46  45 MISG      30.10S                  
PRATT          SUNNY     64  46  51 S13       30.11R                  
MEDICINE LODGE   N/A     63  47  55 S7        30.11S                  

....Northeast Kansas....
  
CITY           SKY/WX    TMP DP  RH WIND       PRES   REMARKS
CONCORDIA      SUNNY     64  54  69 S5        30.07S                  
TOPEKA         SUNNY     66  52  60 VRB6      30.11S                  
MANHATTAN      SUNNY     67  52  58 SW7       30.09S                  
LAWRENCE       SUNNY     66  51  58 S7        30.12S                  
OLATHE         SUNNY     65  49  56 SW10      30.13S                  
EMPORIA        SUNNY     66  50  56 S12       30.12R                  

....Oklahoma....
  
CITY           SKY/WX    TMP DP  RH WIND       PRES   REMARKS
GAGE           MOSUNNY   65  45  48 S14       30.11S                  
PONCA CITY     CLOUDY    67  48  50 S7        30.14S                  
BARTLESVILLE   SUNNY     68  50  52 S10       30.17S                  
TULSA          CLOUDY    68  52  56 S15       30.16F                  
OKLAHOMA CITY  PTSUNNY   66  49  54 S14       30.15S                  

Note: "fair" indicates few or no clouds below 12,000 feet with no
significant weather and/or obstructions to visibility.